Change the Weather History Date:

Thursday, March 6, 2014

  Actual Average Record
Temperature  
Mean Temperature 52 °F -  
Max Temperature 55 °F 68 °F 87 °F (2003)
Min Temperature 46 °F 49 °F 37 °F (2002)
Degree Days  
Heating Degree Days 14    
Growing Degree Days 2 (Base 50)    
Moisture  
Dew Point 51 °F    
Average Humidity 90    
Maximum Humidity 93    
Minimum Humidity 86    
Precipitation  
Precipitation 0.76 in - - ()
Sea Level Pressure  
Sea Level Pressure 29.95 in    
Wind  
Wind Speed 12 mph (NNE)    
Max Wind Speed 18 mph    
Max Gust Speed 26 mph    
Visibility 5 miles    
Events Rain , Thunderstorm    
Averages and records for this station are not official NWS values.
T = Trace of Precipitation, MM = Missing Value Source: NWS Daily Summary

Daily Weather History Graph

Daily Weather History Graph

Search for Another Location

Airport or City:

Trip Planner

Search our weather history database for the weather conditions in past years. The results will help you decide how hot, cold, wet, or windy it might be!

Date:

Astronomy

Mar. 06, 2014 Rise Set
Actual Time 6:46 AM EST 6:28 PM EST
Civil Twilight 6:22 AM EST 6:52 PM EST
Nautical Twilight 5:54 AM EST 7:20 PM EST
Astronomical Twilight 5:26 AM EST 7:48 PM EST
Moon 10:17 AM EST (3/6) No Moon Set
Length of Visible Light 12h 29m
Length of Day
11h 41m
Waxing Crescent, 32% of the Moon is Illuminated
Mar 6
Waxing Crescent
Mar 8
First Quarter
Mar 16
Full
Mar 23
Last Quarter
Mar 30
New

Hourly Weather History & Observations

Time (EST) Temp. Windchill Dew Point Humidity Pressure Visibility Wind Dir Wind Speed Gust Speed Precip Events Conditions
12:00 AM 53.1 °F - 50.0 °F 89% 30.11 in 10.0 mi NNE 9.2 mph - N/A   Overcast
12:53 AM 53.1 °F - 50.0 °F 89% 30.09 in 9.0 mi NNE 9.2 mph - N/A   Overcast
1:53 AM 53.1 °F - 50.0 °F 89% 30.06 in 10.0 mi NE 12.7 mph - N/A   Overcast
2:53 AM 54.0 °F - 51.1 °F 90% 30.04 in 10.0 mi NNE 11.5 mph - N/A   Overcast
3:53 AM 54.0 °F - 51.1 °F 90% 30.01 in 9.0 mi NNE 12.7 mph - N/A   Overcast
4:22 AM 54.0 °F - 51.1 °F 90% 30.01 in 8.0 mi NNE 9.2 mph - N/A   Overcast
4:53 AM 55.0 °F - 52.0 °F 89% 29.99 in 7.0 mi NE 9.2 mph - N/A   Overcast
5:53 AM 55.9 °F - 53.1 °F 90% 29.99 in 5.0 mi NE 10.4 mph 21.9 mph N/A   Overcast
6:53 AM 55.9 °F - 54.0 °F 93% 29.99 in 4.0 mi NNE 11.5 mph - N/A   Overcast
7:09 AM 55.9 °F - 54.0 °F 93% 29.98 in 1.0 mi NE 16.1 mph 21.9 mph N/A   Overcast
7:53 AM 55.9 °F - 54.0 °F 93% 29.98 in 1.0 mi NNE 13.8 mph 23.0 mph N/A   Overcast
8:01 AM 55.9 °F - 53.1 °F 90% 29.98 in 1.0 mi NNE 11.5 mph - N/A   Overcast
8:53 AM 55.0 °F - 53.1 °F 93% 29.98 in 1.0 mi NNE 12.7 mph - 0.00 in Rain Light Rain
8:58 AM 55.9 °F - 53.1 °F 90% 29.98 in 2.0 mi NNE 11.5 mph - 0.00 in Rain Light Rain
9:14 AM 55.9 °F - 54.0 °F 93% 29.98 in 3.0 mi NNE 10.4 mph - 0.00 in   Overcast
9:53 AM 55.9 °F - 53.1 °F 90% 29.96 in 6.0 mi NNE 16.1 mph - 0.01 in Rain Light Rain
10:13 AM 55.9 °F - 53.1 °F 90% 29.95 in 7.0 mi NNE 16.1 mph 23.0 mph 0.00 in   Overcast
10:36 AM 55.0 °F - 53.1 °F 93% 29.96 in 1.8 mi NE 15.0 mph 23.0 mph 0.06 in Rain Heavy Rain
10:45 AM 55.9 °F - 53.1 °F 90% 29.96 in 3.0 mi NNE 16.1 mph - 0.08 in Rain Light Rain
10:53 AM 55.9 °F - 53.1 °F 90% 29.95 in 2.5 mi NNE 18.4 mph 25.3 mph 0.09 in Rain Rain
11:53 AM 55.0 °F - 51.1 °F 86% 29.96 in 2.5 mi North 16.1 mph 25.3 mph 0.12 in Rain Light Rain
11:56 AM 55.0 °F - 51.1 °F 86% 29.97 in 8.0 mi NNW 10.4 mph 25.3 mph 0.01 in Rain , Thunderstorm Thunderstorms and Rain
12:01 PM 55.0 °F - 51.1 °F 86% 29.96 in 1.0 mi NNW 15.0 mph 23.0 mph 0.07 in Rain , Thunderstorm Thunderstorms and Rain
12:17 PM 54.0 °F - 51.1 °F 90% 29.97 in 2.5 mi NNW 10.4 mph 18.4 mph 0.19 in Rain Heavy Rain
12:24 PM 54.0 °F - 51.1 °F 90% 29.95 in 3.0 mi NNE 13.8 mph 18.4 mph 0.21 in Rain Rain
12:35 PM 54.0 °F - 51.1 °F 90% 29.99 in 3.0 mi WSW 11.5 mph 21.9 mph 0.23 in Rain , Thunderstorm Rain
12:50 PM 53.6 °F - 50.0 °F 88% 29.97 in 3.0 mi NNW 11.5 mph - 0.34 in Rain Heavy Rain
12:53 PM 53.1 °F - 51.1 °F 93% 29.96 in 4.0 mi North 11.5 mph - 0.35 in Rain Rain
1:53 PM 53.1 °F - 50.0 °F 89% 29.88 in 6.0 mi NNE 16.1 mph 26.5 mph 0.19 in Rain Light Rain
2:53 PM 53.1 °F - 50.0 °F 89% 29.86 in 8.0 mi North 13.8 mph - 0.00 in   Overcast
3:53 PM 53.1 °F - 48.9 °F 86% 29.82 in 6.0 mi NNE 18.4 mph 25.3 mph N/A   Overcast
4:53 PM 53.1 °F - 48.9 °F 86% 29.82 in 6.0 mi NNE 15.0 mph 21.9 mph N/A   Overcast
5:53 PM 53.1 °F - 48.9 °F 86% 29.83 in 5.0 mi North 13.8 mph 21.9 mph N/A   Overcast
6:53 PM 52.0 °F - 48.0 °F 86% 29.83 in 4.0 mi North 10.4 mph 24.2 mph N/A   Overcast
7:53 PM 51.1 °F - 48.0 °F 89% 29.83 in 4.0 mi NNE 11.5 mph - 0.00 in Rain Light Rain
8:53 PM 50.0 °F - 48.0 °F 93% 29.86 in 4.0 mi North 11.5 mph - 0.00 in Rain Light Rain
9:53 PM 48.9 °F - 46.9 °F 93% 29.86 in 4.0 mi NNW 10.4 mph - 0.00 in   Overcast
10:53 PM 48.0 °F - 45.0 °F 89% 29.86 in 4.0 mi NNW 9.2 mph - 0.00 in Rain Light Rain
11:18 PM 48.0 °F - 45.0 °F 89% 29.85 in 8.0 mi NNW 10.4 mph - 0.00 in   Overcast
11:53 PM 46.0 °F 41.4 °F 44.1 °F 93% 29.84 in 6.0 mi NNW 9.2 mph - 0.00 in   Overcast